Content
SEND FEEDBACK

Daily
Averages
Monthly
Summary
United States of America

CENTRAL GARDENS, TEXAS


Home > North America > United States > Texas
Elevation: 3 feet     Latitude: 29 57N     Longitude: 094 01W

WEATHER
 
SELECT A DAY
Number of Records: 221,842;   Date Range: 1/1/95 - 10/24/14
 
SHARE

PRINT THIS DATA

[ ← Previous Day ]
WEATHER ALMANAC - JANUARY 31, 2013
[ Next Day → ]
[ °C ]   °F
Weather ElementAverageHighLow
Temperature48.5 °F64 °F (1:53 pm)34 °F (5:53 am)
Dewpoint33.9 °F39.9 °F (11:53 pm)26.1 °F (11:53 am)
Humidity63.5 %100 % (5:53 am)26 % (11:53 am)
Barometer30.27 in30.33 in (10:53 am)30.22 in (4:53 am)
Wind Speed5.4 mph15 mph (1:53 pm)
Wind Gust19.6 mph (1:53 pm)
Weather ElementAverage
Visibility9.7 mi
Wind DirectionESE (122.5 °)

Weather ElementTotal
Precipitation---
Heating Degree Days16 (Base 65)
Averaged from 24 records on January 31, 2013
WEATHER CONDITIONS BREAKOUT
WIND DIRECTION BREAKOUT
WEATHER BY HOUR - JANUARY 31, 2013
[ °C ]   °F
Local TimeTemperatureDewpointHumidityBarometerVisibilityWind DirectionWind SpeedGust SpeedPrecipitationEventsConditions
1:53 AM37.0 °F33.1 °F86 %30.23 in10.0 miCalmClear
2:53 AM37.0 °F33.1 °F86 %30.23 in10.0 miCalmClear
3:53 AM35.1 °F33.1 °F92 %30.23 in10.0 miCalmClear
4:53 AM37.0 °F35.1 °F93 %30.22 in10.0 miCalmClear
5:33 AM35.6 °F33.8 °F93 %30.23 in1.8 miCalmClear
5:53 AM34.0 °F34.0 °F100 %30.23 in10.0 miCalmClear
6:53 AM36.0 °F34.0 °F93 %30.26 in10.0 miCalmClear
7:53 AM37.9 °F37.0 °F97 %30.28 in10.0 miCalmClear
8:53 AM48.0 °F37.9 °F68 %30.31 in10.0 miCalmClear
9:53 AM55.0 °F30.9 °F40 %30.32 in10.0 miSW (220°)8.1 mphClear
10:53 AM59.0 °F28.0 °F31 %30.33 in10.0 miSouth (190°)9.2 mphClear
11:53 AM61.0 °F26.1 °F26 %30.31 in10.0 miWest (260°)6.9 mphClear
12:53 PM62.1 °F28.0 °F28 %30.28 in10.0 miSW (220°)8.1 mphClear
1:53 PM64.0 °F32.0 °F30 %30.26 in10.0 miSSW (210°)15.0 mph19.6 mphClear
2:53 PM62.1 °F30.0 °F30 %30.27 in10.0 miSSW (200°)15.0 mphClear
3:53 PM60.1 °F27.0 °F28 %30.25 in10.0 miSouth (190°)11.5 mphClear
4:53 PM59.0 °F32.0 °F36 %30.27 in10.0 miSouth (180°)13.8 mphClear
5:53 PM53.1 °F36.0 °F52 %30.26 in10.0 miSouth (180°)8.1 mphClear
6:53 PM50.0 °F37.9 °F63 %30.26 in10.0 miSouth (180°)8.1 mphClear
7:53 PM48.0 °F37.0 °F66 %30.28 in10.0 miSouth (180°)5.8 mphClear
8:53 PM48.0 °F39.0 °F71 %30.31 in10.0 miSouth (190°)5.8 mphClear
9:53 PM50.0 °F39.0 °F66 %30.32 in10.0 miSouth (180°)3.5 mphClear
10:53 PM46.9 °F39.0 °F74 %30.32 in10.0 miSouth (180°)4.6 mphClear
11:53 PM48.0 °F39.9 °F74 %30.32 in10.0 miSouth (180°)5.8 mphClear
Hourly data recorded from KBPT, located miles away from Central Gardens, Texas







STORIES FROM OUR PARTNERS